| time (UTC) | temp F | wind direction | speed MPH | gust MPH | rain 1hr in | rain 24hr in | rain mn in | humidity % | barometer mb |
| 20260903173035 | 72 | 82 | 0.0 | 3.0 | 0.00 | 0.49 | 0.49 | 96 | 1011.9 |
| 20260903171537 | 72 | 80 | 0.0 | 1.0 | 0.00 | 0.49 | 0.49 | 97 | 1011.6 |
| 20260903170031 | 71 | 80 | 0.0 | 4.0 | 0.01 | 0.49 | 0.49 | 97 | 1010.6 |
| 20260903164534 | 70 | 84 | 2.0 | 6.0 | 0.02 | 0.49 | 0.49 | 97 | 1010.9 |
| 20260903163040 | 70 | 80 | 0.0 | 6.0 | 0.11 | 0.49 | 0.49 | 97 | 1011.4 |
| 20260903161528 | 69 | 69 | 0.0 | 2.0 | 0.12 | 0.49 | 0.49 | 96 | 1011.6 |
| 20260903160030 | 69 | 29 | 0.0 | 4.0 | 0.12 | 0.48 | 0.48 | 95 | 1011.8 |
| 20260903154527 | 69 | 355 | 0.0 | 2.0 | 0.22 | 0.47 | 0.47 | 95 | 1012.3 |
| 20260903153028 | 69 | 275 | 1.0 | 4.0 | 0.28 | 0.37 | 0.37 | 94 | 1012.2 |
| 20260903151526 | 69 | 92 | 0.0 | 0.0 | 0.37 | 0.37 | 0.37 | 94 | 1011.5 |
| 20260903150022 | 70 | 92 | 0.0 | 3.0 | 0.36 | 0.36 | 0.36 | 92 | 1011.1 |
| 20260903144521 | 70 | 92 | 0.0 | 0.0 | 0.24 | 0.24 | 0.24 | 91 | 1011.1 |
| 20260903143024 | 71 | 92 | 0.0 | 1.0 | 0.09 | 0.09 | 0.09 | 89 | 1010.7 |
| 20260903141518 | 71 | 92 | 0.0 | 3.0 | 0.00 | 0.00 | 0.00 | 88 | 1011.1 |
| 20260903140024 | 71 | 77 | 0.0 | 3.0 | 0.00 | 0.00 | 0.00 | 88 | 1011.1 |
| 20260903134515 | 71 | 76 | 0.0 | 7.0 | 0.00 | 0.00 | 0.00 | 88 | 1011.1 |
| 20260903133013 | 71 | 83 | 0.0 | 6.0 | 0.00 | 0.00 | 0.00 | 90 | 1010.8 |
| 20260903131512 | 71 | 94 | 0.0 | 3.0 | 0.00 | 0.00 | 0.00 | 93 | 1010.6 |
| 20260903130019 | 70 | 83 | 2.0 | 6.0 | 0.00 | 0.00 | 0.00 | 94 | 1010.6 |
| 20260903124507 | 70 | 78 | 0.0 | 2.0 | 0.00 | 0.00 | 0.00 | 94 | 1010.8 |
| 20260903123008 | 70 | 76 | 0.0 | 4.0 | 0.00 | 0.00 | 0.00 | 94 | 1010.8 |
| 20260903121508 | 70 | 82 | 0.0 | 3.0 | 0.00 | 0.00 | 0.00 | 94 | 1010.8 |
| 20260903120009 | 70 | 81 | 0.0 | 3.0 | 0.00 | 0.00 | 0.00 | 93 | 1010.7 |
| 20260903114506 | 70 | 78 | 0.0 | 1.0 | 0.00 | 0.00 | 0.00 | 92 | 1010.8 |
| 20260903113014 | 70 | 130 | 0.0 | 0.0 | 0.00 | 0.00 | 0.00 | 92 | 1010.9 |
| 20260903111506 | 70 | 132 | 0.0 | 0.0 | 0.00 | 0.00 | 0.00 | 92 | 1010.9 |
| 20260903110005 | 70 | 132 | 0.0 | 0.0 | 0.00 | 0.24 | 0.00 | 91 | 1010.8 |
| 20260903104505 | 70 | 132 | 0.0 | 0.0 | 0.00 | 0.24 | 0.00 | 92 | 1010.8 |
| 20260903103004 | 70 | 132 | 0.0 | 0.0 | 0.00 | 0.24 | 0.00 | 92 | 1010.8 |
| 20260903101507 | 70 | 132 | 1.0 | 4.0 | 0.00 | 0.24 | 0.00 | 92 | 1010.7 |
| 20260903100004 | 70 | 132 | 1.0 | 5.0 | 0.00 | 0.24 | 0.00 | 91 | 1010.7 |
| 20260903094508 | 70 | 131 | 2.0 | 5.0 | 0.00 | 0.24 | 0.00 | 92 | 1010.7 |
| 20260903093002 | 70 | 131 | 2.0 | 5.0 | 0.00 | 0.24 | 0.00 | 91 | 1010.7 |
| 20260903091502 | 70 | 132 | 1.0 | 4.0 | 0.00 | 0.24 | 0.00 | 91 | 1010.5 |
| 20260903090100 | 71 | 132 | 1.0 | 5.0 | 0.00 | 0.24 | 0.00 | 91 | 1010.5 |
| 20260903084557 | 70 | 130 | 2.0 | 5.0 | 0.00 | 0.24 | 0.00 | 92 | 1010.4 |
| 20260903083059 | 70 | 132 | 2.0 | 5.0 | 0.00 | 0.24 | 0.00 | 92 | 1010.4 |
| 20260903081554 | 70 | 132 | 3.0 | 5.0 | 0.00 | 0.24 | 0.00 | 92 | 1010.5 |
| 20260903080053 | 70 | 130 | 2.0 | 5.0 | 0.00 | 0.24 | 0.00 | 92 | 1010.6 |
| 20260903074604 | 70 | 128 | 3.0 | 5.0 | 0.00 | 0.24 | 0.00 | 93 | 1010.5 |
| 20260903073050 | 69 | 132 | 1.0 | 4.0 | 0.00 | 0.24 | 0.00 | 94 | 1010.7 |
| 20260903071553 | 69 | 131 | 0.0 | 0.0 | 0.00 | 0.24 | 0.00 | 94 | 1010.7 |
| 20260903070049 | 69 | 131 | 0.0 | 0.0 | 0.00 | 0.24 | 0.00 | 94 | 1010.8 |
| 20260903064550 | 68 | 131 | 0.0 | 0.0 | 0.00 | 0.24 | 0.00 | 94 | 1010.9 |
| 20260903063048 | 68 | 131 | 0.0 | 0.0 | 0.00 | 0.24 | 0.00 | 94 | 1011.0 |
| 20260903061553 | 69 | 131 | 0.0 | 0.0 | 0.00 | 0.24 | 0.00 | 94 | 1011.0 |
| 20260903060045 | 69 | 131 | 0.0 | 0.0 | 0.00 | 0.24 | 0.00 | 93 | 1010.8 |
| 20260903054548 | 69 | 131 | 0.0 | 0.0 | 0.00 | 0.24 | 0.00 | 93 | 1010.9 |
| 20260903053101 | 69 | 131 | 0.0 | 0.0 | 0.00 | 0.24 | 0.00 | 93 | 1010.9 |
| 20260903051542 | 69 | 131 | 0.0 | 0.0 | 0.00 | 0.24 | 0.00 | 93 | 1010.7 |
| 20260903050039 | 70 | 131 | 0.0 | 3.0 | 0.00 | 0.24 | 0.24 | 93 | 1010.6 |
| 20260903044550 | 70 | 131 | 1.0 | 3.0 | 0.00 | 0.24 | 0.24 | 92 | 1010.6 |
| 20260903043039 | 70 | 132 | 2.0 | 5.0 | 0.00 | 0.24 | 0.24 | 92 | 1010.5 |
| 20260903041537 | 70 | 132 | 2.0 | 5.0 | 0.00 | 0.24 | 0.24 | 92 | 1010.5 |
| 20260903040037 | 70 | 132 | 1.0 | 4.0 | 0.00 | 0.24 | 0.24 | 91 | 1010.5 |
| 20260903034536 | 71 | 133 | 2.0 | 4.0 | 0.00 | 0.24 | 0.24 | 91 | 1010.6 |
| 20260903033036 | 71 | 132 | 2.0 | 4.0 | 0.00 | 0.24 | 0.24 | 90 | 1010.7 |
| 20260903031535 | 71 | 132 | 0.0 | 3.0 | 0.00 | 0.24 | 0.24 | 90 | 1010.7 |
| 20260903030041 | 72 | 132 | 1.0 | 3.0 | 0.00 | 0.24 | 0.24 | 89 | 1010.6 |
| 20260903024541 | 72 | 131 | 2.0 | 5.0 | 0.00 | 0.24 | 0.24 | 89 | 1010.7 |
| 20260903023034 | 73 | 132 | 2.0 | 4.0 | 0.00 | 0.24 | 0.24 | 88 | 1010.6 |
| 20260903021536 | 73 | 130 | 1.0 | 3.0 | 0.00 | 0.24 | 0.24 | 88 | 1010.5 |
| 20260903020035 | 73 | 130 | 2.0 | 5.0 | 0.00 | 0.24 | 0.24 | 89 | 1010.4 |
| 20260903014533 | 74 | 70 | 2.0 | 4.0 | 0.00 | 0.24 | 0.24 | 88 | 1010.3 |
| 20260903013032 | 74 | 34 | 0.0 | 2.0 | 0.00 | 0.24 | 0.24 | 87 | 1010.1 |
| 20260903011540 | 74 | 32 | 0.0 | 1.0 | 0.00 | 0.24 | 0.24 | 87 | 1009.9 |
| 20260903010031 | 75 | 29 | 0.0 | 2.0 | 0.00 | 0.24 | 0.24 | 84 | 1009.8 |
| 20260903004532 | 76 | 346 | 0.0 | 0.0 | 0.00 | 0.24 | 0.24 | 82 | 1009.6 |
| 20260903003030 | 79 | 346 | 0.0 | 0.0 | 0.00 | 0.24 | 0.24 | 76 | 1009.7 |
| 20260903001530 | 82 | 346 | 0.0 | 0.0 | 0.00 | 0.24 | 0.24 | 71 | 1009.8 |
| 20260903000029 | 83 | 346 | 0.0 | 0.0 | 0.00 | 0.24 | 0.24 | 69 | 1009.8 |
| 20260902234528 | 85 | 346 | 0.0 | 0.0 | 0.00 | 0.24 | 0.24 | 67 | 1009.7 |
| 20260902233035 | 85 | 346 | 0.0 | 0.0 | 0.00 | 0.24 | 0.24 | 67 | 1009.8 |
| 20260902231526 | 84 | 346 | 0.0 | 0.0 | 0.00 | 0.24 | 0.24 | 66 | 1009.7 |
| 20260902230026 | 84 | 346 | 0.0 | 0.0 | 0.00 | 0.24 | 0.24 | 65 | 1009.6 |
| 20260902224524 | 84 | 350 | 0.0 | 0.0 | 0.00 | 0.24 | 0.24 | 65 | 1009.7 |
| 20260902223024 | 84 | 355 | 0.0 | 0.0 | 0.00 | 0.24 | 0.24 | 66 | 1009.7 |
| 20260902221523 | 84 | 355 | 0.0 | 3.0 | 0.00 | 0.24 | 0.24 | 65 | 1009.8 |
| 20260902220029 | 84 | 34 | 0.0 | 3.0 | 0.00 | 0.24 | 0.24 | 64 | 1009.8 |
| 20260902214520 | 84 | 35 | 0.0 | 2.0 | 0.00 | 0.24 | 0.24 | 65 | 1010.0 |
| 20260902213017 | 83 | 34 | 0.0 | 3.0 | 0.00 | 0.24 | 0.24 | 69 | 1010.0 |
| 20260902211513 | 82 | 5 | 0.0 | 2.0 | 0.00 | 0.24 | 0.24 | 71 | 1010.2 |
| 20260902210012 | 81 | 80 | 0.0 | 4.0 | 0.00 | 0.24 | 0.24 | 71 | 1010.2 |
| 20260902204520 | 81 | 38 | 0.0 | 5.0 | 0.00 | 0.24 | 0.24 | 71 | 1010.4 |
| 20260902203011 | 81 | 28 | 0.0 | 3.0 | 0.00 | 0.24 | 0.24 | 70 | 1010.4 |
| 20260902201522 | 81 | 313 | 1.0 | 4.0 | 0.00 | 0.24 | 0.24 | 70 | 1010.6 |
| 20260902200011 | 81 | 305 | 1.0 | 3.0 | 0.00 | 0.24 | 0.24 | 71 | 1010.6 |
| 20260902194511 | 81 | 321 | 1.0 | 3.0 | 0.00 | 0.24 | 0.24 | 69 | 1010.6 |
| 20260902193008 | 81 | 273 | 0.0 | 4.0 | 0.00 | 0.24 | 0.24 | 68 | 1010.6 |
| 20260902191513 | 81 | 196 | 0.0 | 1.0 | 0.00 | 0.24 | 0.24 | 68 | 1010.5 |
| 20260902190002 | 81 | 197 | 0.0 | 4.0 | 0.00 | 0.24 | 0.24 | 69 | 1010.5 |
| 20260902184600 | 80 | 298 | 0.0 | 5.0 | 0.00 | 0.24 | 0.24 | 72 | 1010.6 |
| 20260902183057 | 79 | 77 | 0.0 | 2.0 | 0.00 | 0.24 | 0.24 | 74 | 1010.8 |
| 20260902181610 | 79 | 275 | 1.0 | 4.0 | 0.00 | 0.24 | 0.24 | 72 | 1011.0 |
| 20260902180059 | 78 | 290 | 0.0 | 3.0 | 0.00 | 0.24 | 0.24 | 75 | 1011.1 |
| 20260902174549 | 77 | 257 | 0.0 | 2.0 | 0.00 | 0.24 | 0.24 | 75 | 1010.9 |